Time,TemperatureF,DewpointF,PressureIn,WindDirection,WindDirectionDegrees,WindSpeedMPH,WindSpeedGustMPH,Humidity,HourlyPrecipIn,Conditions,Clouds,dailyrainin,SoftwareType,DateUTC
2013-02-04 00:02:00,-3.0,-9.0,-100.00,NNE,15,1.0,1.0,78,-99.99,,,-99.99,,2013-02-04 06:02:00,
2013-02-04 00:11:00,-3.0,-9.0,-100.00,NNE,15,1.0,1.0,78,-99.99,,,-99.99,,2013-02-04 06:11:00,
2013-02-04 00:20:00,-5.0,-10.0,-100.00,NNE,25,0.0,1.0,80,-99.99,,,-99.99,,2013-02-04 06:20:00,
2013-02-04 00:42:00,-5.0,-10.0,-100.00,NNE,25,0.0,1.0,80,-99.99,,,-99.99,,2013-02-04 06:42:00,
2013-02-04 00:52:00,-5.0,-10.0,-100.00,NNE,25,0.0,1.0,80,-99.99,,,-99.99,,2013-02-04 06:52:00,
2013-02-04 01:02:00,-5.0,-10.0,-100.00,NNE,25,0.0,1.0,80,-99.99,,,-99.99,,2013-02-04 07:02:00,
2013-02-04 01:11:00,-5.0,-10.0,-100.00,NNE,25,0.0,1.0,80,-99.99,,,-99.99,,2013-02-04 07:11:00,
2013-02-04 01:42:00,-10.0,-14.0,-100.00,NNE,15,0.0,0.0,82,-99.99,,,-99.99,,2013-02-04 07:42:00,
2013-02-04 01:52:00,-10.0,-14.0,-100.00,NNE,15,0.0,0.0,82,-99.99,,,-99.99,,2013-02-04 07:52:00,
2013-02-04 02:01:00,-10.0,-14.0,-100.00,NNE,15,0.0,0.0,82,-99.99,,,-99.99,,2013-02-04 08:01:00,
2013-02-04 02:11:00,-10.0,-14.0,-100.00,NNE,15,0.0,0.0,82,-99.99,,,-99.99,,2013-02-04 08:11:00,
2013-02-04 02:20:00,-13.0,-17.0,-100.00,North,5,0.0,1.0,82,-99.99,,,-99.99,,2013-02-04 08:20:00,
2013-02-04 02:21:00,-10.0,-14.0,-100.00,NNE,15,0.0,0.0,82,-99.99,,,-99.99,,2013-02-04 08:21:00,
2013-02-04 02:42:00,-13.0,-17.0,-100.00,North,5,0.0,1.0,82,-99.99,,,-99.99,,2013-02-04 08:42:00,
2013-02-04 02:52:00,-13.0,-17.0,-100.00,North,5,0.0,1.0,82,-99.99,,,-99.99,,2013-02-04 08:52:00,
2013-02-04 03:02:00,-13.0,-17.0,-100.00,North,5,0.0,1.0,82,-99.99,,,-99.99,,2013-02-04 09:02:00,
2013-02-04 03:11:00,-13.0,-17.0,-100.00,North,5,0.0,1.0,82,-99.99,,,-99.99,,2013-02-04 09:11:00,
2013-02-04 03:21:00,-16.0,-20.0,-100.00,North,10,0.0,0.0,82,-99.99,,,-99.99,,2013-02-04 09:21:00,
2013-02-04 03:42:00,-16.0,-20.0,-100.00,North,10,0.0,0.0,82,-99.99,,,-99.99,,2013-02-04 09:42:00,
2013-02-04 03:52:00,-16.0,-20.0,-100.00,North,10,0.0,0.0,82,-99.99,,,-99.99,,2013-02-04 09:52:00,
2013-02-04 04:01:00,-16.0,-20.0,-100.00,North,10,0.0,0.0,82,-99.99,,,-99.99,,2013-02-04 10:01:00,
2013-02-04 04:11:00,-16.0,-20.0,-100.00,North,10,0.0,0.0,82,-99.99,,,-99.99,,2013-02-04 10:11:00,
2013-02-04 04:42:00,-18.0,-22.0,-100.00,NNE,20,0.0,0.0,82,-99.99,,,-99.99,,2013-02-04 10:42:00,
2013-02-04 04:52:00,-18.0,-22.0,-100.00,NNE,20,0.0,0.0,82,-99.99,,,-99.99,,2013-02-04 10:52:00,
2013-02-04 05:02:00,-18.0,-22.0,-100.00,NNE,20,0.0,0.0,82,-99.99,,,-99.99,,2013-02-04 11:02:00,
2013-02-04 05:11:00,-18.0,-22.0,-100.00,NNE,20,0.0,0.0,82,-99.99,,,-99.99,,2013-02-04 11:11:00,
2013-02-04 05:20:00,-20.0,-24.0,-100.00,North,10,0.0,0.0,82,-99.99,,,-99.99,,2013-02-04 11:20:00,
2013-02-04 05:22:00,-18.0,-22.0,-100.00,NNE,20,0.0,0.0,82,-99.99,,,-99.99,,2013-02-04 11:22:00,
2013-02-04 05:42:00,-20.0,-24.0,-100.00,North,10,0.0,0.0,82,-99.99,,,-99.99,,2013-02-04 11:42:00,
2013-02-04 05:52:00,-20.0,-24.0,-100.00,North,10,0.0,0.0,82,-99.99,,,-99.99,,2013-02-04 11:52:00,
2013-02-04 06:02:00,-20.0,-24.0,-100.00,North,10,0.0,0.0,82,-99.99,,,-99.99,,2013-02-04 12:02:00,
2013-02-04 06:12:00,-20.0,-24.0,-100.00,North,10,0.0,0.0,82,-99.99,,,-99.99,,2013-02-04 12:12:00,
2013-02-04 06:42:00,-21.0,-25.0,-100.00,NNE,20,0.0,0.0,82,-99.99,,,-99.99,,2013-02-04 12:42:00,
2013-02-04 06:53:00,-21.0,-25.0,-100.00,NNE,20,0.0,0.0,82,-99.99,,,-99.99,,2013-02-04 12:53:00,
2013-02-04 07:02:00,-21.0,-25.0,-100.00,NNE,20,0.0,0.0,82,-99.99,,,-99.99,,2013-02-04 13:02:00,
2013-02-04 07:12:00,-21.0,-25.0,-100.00,NNE,20,0.0,0.0,82,-99.99,,,-99.99,,2013-02-04 13:12:00,
2013-02-04 07:20:00,-22.0,-26.0,-100.00,NNE,15,0.0,1.0,81,-99.99,,,-99.99,,2013-02-04 13:20:00,
2013-02-04 07:42:00,-22.0,-26.0,-100.00,NNE,15,0.0,1.0,81,-99.99,,,-99.99,,2013-02-04 13:42:00,
2013-02-04 07:52:00,-22.0,-26.0,-100.00,NNE,15,0.0,1.0,81,-99.99,,,-99.99,,2013-02-04 13:52:00,
2013-02-04 08:03:00,-22.0,-26.0,-100.00,NNE,15,0.0,1.0,81,-99.99,,,-99.99,,2013-02-04 14:03:00,
2013-02-04 08:12:00,-22.0,-26.0,-100.00,NNE,15,0.0,1.0,81,-99.99,,,-99.99,,2013-02-04 14:12:00,
2013-02-04 08:42:00,-21.0,-26.0,-100.00,SSE,155,0.0,0.0,81,-99.99,,,-99.99,,2013-02-04 14:42:00,
2013-02-04 08:52:00,-21.0,-26.0,-100.00,SSE,155,0.0,0.0,81,-99.99,,,-99.99,,2013-02-04 14:52:00,
2013-02-04 09:03:00,-21.0,-26.0,-100.00,SSE,155,0.0,0.0,81,-99.99,,,-99.99,,2013-02-04 15:03:00,
2013-02-04 09:12:00,-21.0,-26.0,-100.00,SSE,155,0.0,0.0,81,-99.99,,,-99.99,,2013-02-04 15:12:00,
2013-02-04 09:43:00,-10.0,-14.0,-100.00,ENE,65,0.0,0.0,82,-99.99,,,-99.99,,2013-02-04 15:43:00,
2013-02-04 09:53:00,-10.0,-14.0,-100.00,ENE,65,0.0,0.0,82,-99.99,,,-99.99,,2013-02-04 15:53:00,
2013-02-04 10:03:00,-10.0,-14.0,-100.00,ENE,65,0.0,0.0,82,-99.99,,,-99.99,,2013-02-04 16:03:00,
2013-02-04 10:11:00,-10.0,-14.0,-100.00,ENE,65,0.0,0.0,82,-99.99,,,-99.99,,2013-02-04 16:11:00,
2013-02-04 10:43:00,6.0,-1.0,-100.00,East,80,1.0,2.0,76,-99.99,,,-99.99,,2013-02-04 16:43:00,
2013-02-04 10:52:00,6.0,-1.0,-100.00,East,80,1.0,2.0,76,-99.99,,,-99.99,,2013-02-04 16:52:00,
2013-02-04 11:02:00,6.0,-1.0,-100.00,East,80,1.0,2.0,76,-99.99,,,-99.99,,2013-02-04 17:02:00,
2013-02-04 11:11:00,6.0,-1.0,-100.00,East,80,1.0,2.0,76,-99.99,,,-99.99,,2013-02-04 17:11:00,
2013-02-04 11:42:00,11.0,-4.0,-100.00,West,270,4.0,9.0,51,-99.99,,,-99.99,,2013-02-04 17:42:00,
2013-02-04 11:52:00,11.0,-4.0,-100.00,West,270,4.0,9.0,51,-99.99,,,-99.99,,2013-02-04 17:52:00,
2013-02-04 12:11:00,11.0,-4.0,-100.00,West,270,4.0,9.0,51,-99.99,,,-99.99,,2013-02-04 18:11:00,
2013-02-04 12:42:00,11.0,-11.0,-100.00,SW,215,2.0,9.0,36,-99.99,,,-99.99,,2013-02-04 18:42:00,
2013-02-04 12:52:00,11.0,-11.0,-100.00,SW,215,2.0,9.0,36,-99.99,,,-99.99,,2013-02-04 18:52:00,
2013-02-04 13:02:00,11.0,-11.0,-100.00,SW,215,2.0,9.0,36,-99.99,,,-99.99,,2013-02-04 19:02:00,
2013-02-04 13:11:00,11.0,-11.0,-100.00,SW,215,2.0,9.0,36,-99.99,,,-99.99,,2013-02-04 19:11:00,
2013-02-04 13:42:00,14.0,-11.0,-100.00,South,180,3.0,7.0,31,-99.99,,,-99.99,,2013-02-04 19:42:00,
2013-02-04 13:52:00,14.0,-11.0,-100.00,South,180,3.0,7.0,31,-99.99,,,-99.99,,2013-02-04 19:52:00,
2013-02-04 14:02:00,14.0,-11.0,-100.00,South,180,3.0,7.0,31,-99.99,,,-99.99,,2013-02-04 20:02:00,
2013-02-04 14:12:00,14.0,-11.0,-100.00,South,180,3.0,7.0,31,-99.99,,,-99.99,,2013-02-04 20:12:00,
2013-02-04 14:22:00,17.0,-11.0,-100.00,WNW,295,3.0,7.0,28,-99.99,,,-99.99,,2013-02-04 20:22:00,
2013-02-04 14:42:00,17.0,-11.0,-100.00,WNW,295,3.0,7.0,28,-99.99,,,-99.99,,2013-02-04 20:42:00,
2013-02-04 14:52:00,17.0,-11.0,-100.00,WNW,295,3.0,7.0,28,-99.99,,,-99.99,,2013-02-04 20:52:00,
2013-02-04 15:02:00,17.0,-11.0,-100.00,WNW,295,3.0,7.0,28,-99.99,,,-99.99,,2013-02-04 21:02:00,
2013-02-04 15:11:00,17.0,-11.0,-100.00,WNW,295,3.0,7.0,28,-99.99,,,-99.99,,2013-02-04 21:11:00,
2013-02-04 15:21:00,16.0,-12.0,-100.00,SW,230,4.0,9.0,28,-99.99,,,-99.99,,2013-02-04 21:21:00,
2013-02-04 15:43:00,16.0,-12.0,-100.00,SW,230,4.0,9.0,28,-99.99,,,-99.99,,2013-02-04 21:43:00,
2013-02-04 15:52:00,16.0,-12.0,-100.00,SW,230,4.0,9.0,28,-99.99,,,-99.99,,2013-02-04 21:52:00,
2013-02-04 16:02:00,16.0,-12.0,-100.00,SW,230,4.0,9.0,28,-99.99,,,-99.99,,2013-02-04 22:02:00,
2013-02-04 16:12:00,16.0,-12.0,-100.00,SW,230,4.0,9.0,28,-99.99,,,-99.99,,2013-02-04 22:12:00,
2013-02-04 16:20:00,12.0,-13.0,-100.00,SW,230,2.0,6.0,31,-99.99,,,-99.99,,2013-02-04 22:20:00,
2013-02-04 16:42:00,12.0,-13.0,-100.00,SW,230,2.0,6.0,31,-99.99,,,-99.99,,2013-02-04 22:42:00,
2013-02-04 16:52:00,12.0,-13.0,-100.00,SW,230,2.0,6.0,31,-99.99,,,-99.99,,2013-02-04 22:52:00,
2013-02-04 17:01:00,12.0,-13.0,-100.00,SW,230,2.0,6.0,31,-99.99,,,-99.99,,2013-02-04 23:01:00,
2013-02-04 17:11:00,12.0,-13.0,-100.00,SW,230,2.0,6.0,31,-99.99,,,-99.99,,2013-02-04 23:11:00,
2013-02-04 17:21:00,10.0,-13.0,-100.00,South,180,2.0,6.0,34,-99.99,,,-99.99,,2013-02-04 23:21:00,
2013-02-04 17:42:00,10.0,-13.0,-100.00,South,180,2.0,6.0,34,-99.99,,,-99.99,,2013-02-04 23:42:00,
2013-02-04 17:52:00,10.0,-13.0,-100.00,South,180,2.0,6.0,34,-99.99,,,-99.99,,2013-02-04 23:52:00,
2013-02-04 18:01:00,10.0,-13.0,-100.00,South,180,2.0,6.0,34,-99.99,,,-99.99,,2013-02-05 00:01:00,
2013-02-04 18:11:00,10.0,-13.0,-100.00,South,180,2.0,6.0,34,-99.99,,,-99.99,,2013-02-05 00:11:00,
2013-02-04 18:20:00,8.0,-11.0,-100.00,SW,225,2.0,7.0,40,-99.99,,,-99.99,,2013-02-05 00:20:00,
2013-02-04 18:42:00,8.0,-11.0,-100.00,SW,225,2.0,7.0,40,-99.99,,,-99.99,,2013-02-05 00:42:00,
2013-02-04 18:52:00,8.0,-11.0,-100.00,SW,225,2.0,7.0,40,-99.99,,,-99.99,,2013-02-05 00:52:00,
2013-02-04 19:02:00,8.0,-11.0,-100.00,SW,225,2.0,7.0,40,-99.99,,,-99.99,,2013-02-05 01:02:00,
2013-02-04 19:11:00,8.0,-11.0,-100.00,SW,225,2.0,7.0,40,-99.99,,,-99.99,,2013-02-05 01:11:00,
2013-02-04 19:42:00,6.0,-11.0,-100.00,South,180,2.0,6.0,44,-99.99,,,-99.99,,2013-02-05 01:42:00,
2013-02-04 19:52:00,6.0,-11.0,-100.00,South,180,2.0,6.0,44,-99.99,,,-99.99,,2013-02-05 01:52:00,
2013-02-04 20:01:00,6.0,-11.0,-100.00,South,180,2.0,6.0,44,-99.99,,,-99.99,,2013-02-05 02:01:00,
2013-02-04 20:11:00,6.0,-11.0,-100.00,South,180,2.0,6.0,44,-99.99,,,-99.99,,2013-02-05 02:11:00,
2013-02-04 21:21:00,6.0,-6.0,-100.00,South,180,4.0,9.0,59,-99.99,,,-99.99,,2013-02-05 03:21:00,
2013-02-04 21:42:00,6.0,-6.0,-100.00,South,180,4.0,9.0,59,-99.99,,,-99.99,,2013-02-05 03:42:00,
2013-02-04 21:52:00,6.0,-6.0,-100.00,South,180,4.0,9.0,59,-99.99,,,-99.99,,2013-02-05 03:52:00,
2013-02-04 22:01:00,6.0,-6.0,-100.00,South,180,4.0,9.0,59,-99.99,,,-99.99,,2013-02-05 04:01:00,
2013-02-04 22:11:00,6.0,-6.0,-100.00,South,180,4.0,9.0,59,-99.99,,,-99.99,,2013-02-05 04:11:00,
2013-02-04 22:20:00,8.0,-5.0,-100.00,SSE,165,5.0,11.0,56,-99.99,,,-99.99,,2013-02-05 04:20:00,
2013-02-04 22:42:00,8.0,-5.0,-100.00,SSE,165,5.0,11.0,56,-99.99,,,-99.99,,2013-02-05 04:42:00,
2013-02-04 22:52:00,8.0,-5.0,-100.00,SSE,165,5.0,11.0,56,-99.99,,,-99.99,,2013-02-05 04:52:00,
2013-02-04 23:02:00,8.0,-5.0,-100.00,SSE,165,5.0,11.0,56,-99.99,,,-99.99,,2013-02-05 05:02:00,
2013-02-04 23:11:00,8.0,-5.0,-100.00,SSE,165,5.0,11.0,56,-99.99,,,-99.99,,2013-02-05 05:11:00,
2013-02-04 23:21:00,8.0,-4.0,-100.00,South,170,4.0,9.0,56,-99.99,,,-99.99,,2013-02-05 05:21:00,
2013-02-04 23:42:00,8.0,-4.0,-100.00,South,170,4.0,9.0,56,-99.99,,,-99.99,,2013-02-05 05:42:00,
2013-02-04 23:52:00,8.0,-4.0,-100.00,South,170,4.0,9.0,56,-99.99,,,-99.99,,2013-02-05 05:52:00,